Location: Byszew
(52.1813°N, 19.2693°E)
Time: 02:12:50
(UTC+00:00)

Cosmos 1844 - Pass Details

Date: 21 June 2021
Orbit: 823 x 867 km, 70.9° (Epoch: 03 August)

Event Time Altitude Azimuth Distance (km) Brightness Sun altitude
Rises 20:08:48 0° 324° (NW) 3,373 9.6 -7.1°
Reaches altitude 10° 20:11:24 10° 316° (NW) 2,438 7.8 -7.3°
Maximum altitude 20:16:24 35° 252° (WSW) 1,313 4.9 -7.7°
Drops below altitude 10° 20:21:25 10° 188° (S) 2,442 5.7 -8.1°
Enters shadow 20:22:58 - 183° (S) 2,987 6.1 -8.3°
